DAL511 KDFW-KATL

Flight info

Callsign DAL511
Flight time N/A
Altitude 37000
Route TRYTN4 LOOSE MEMFS HUTCC KNSAW RUSSA GLAVN2
Aircraft B77W/H-SDE1E2E3FGHIJ2J3J4J5M1RWXY/LB1D1

Departure

Time 2026-05-05 13:22
Airport Dallas Fort Worth International Airport (KDFW)

Arrival

Time N/A
Airport Hartsfield Jackson Atlanta International Airport (KATL)
Time Latitude Longitude Altitude Speed Heading
2026-05-05 13:02 32.88980 -97.03491 620 ft 0 kts 288°
2026-05-05 13:11 32.88976 -97.03476 620 ft 3 kts 288°
2026-05-05 13:11 32.88970 -97.03452 634 ft 3 kts 288°
2026-05-05 13:11 32.88963 -97.03429 620 ft 3 kts 288°
2026-05-05 13:11 32.88952 -97.03413 634 ft 2 kts 327°
2026-05-05 13:12 32.88951 -97.03412 620 ft 2 kts 328°
2026-05-05 13:12 32.88967 -97.03422 620 ft 2 kts 335°
2026-05-05 13:12 32.88971 -97.03424 620 ft 0 kts 337°
2026-05-05 13:14 32.88976 -97.03426 632 ft 7 kts 339°
2026-05-05 13:15 32.89033 -97.03433 631 ft 8 kts 357°
2026-05-05 13:15 32.89075 -97.03433 634 ft 4 kts 12°
2026-05-05 13:15 32.89097 -97.03401 632 ft 7 kts 68°
2026-05-05 13:15 32.89119 -97.03342 634 ft 8 kts 48°
2026-05-05 13:16 32.89179 -97.03319 630 ft 13 kts
2026-05-05 13:16 32.89292 -97.03319 627 ft 17 kts
2026-05-05 13:16 32.89416 -97.03317 631 ft 18 kts
2026-05-05 13:16 32.89536 -97.03317 620 ft 18 kts
2026-05-05 13:17 32.89656 -97.03318 626 ft 15 kts 359°
2026-05-05 13:17 32.89735 -97.03280 631 ft 13 kts 59°
2026-05-05 13:17 32.89798 -97.03204 629 ft 13 kts 18°
2026-05-05 13:17 32.89891 -97.03194 627 ft 14 kts
2026-05-05 13:18 32.90001 -97.03194 631 ft 20 kts 360°
2026-05-05 13:18 32.90163 -97.03192 630 ft 24 kts
2026-05-05 13:18 32.90330 -97.03191 627 ft 24 kts
2026-05-05 13:18 32.90496 -97.03190 626 ft 24 kts
2026-05-05 13:19 32.90664 -97.03189 627 ft 24 kts
2026-05-05 13:19 32.90831 -97.03188 627 ft 24 kts
2026-05-05 13:19 32.90997 -97.03187 627 ft 24 kts
2026-05-05 13:19 32.91164 -97.03186 627 ft 24 kts
2026-05-05 13:20 32.91331 -97.03186 634 ft 23 kts 359°
2026-05-05 13:20 32.91458 -97.03187 627 ft 14 kts 360°
2026-05-05 13:20 32.91545 -97.03153 627 ft 14 kts 52°
2026-05-05 13:20 32.91562 -97.03057 632 ft 14 kts 95°
2026-05-05 13:21 32.91516 -97.02996 621 ft 10 kts 162°
2026-05-05 13:21 32.91488 -97.02992 621 ft 0 kts 175°
2026-05-05 13:21 32.91396 -97.02991 631 ft 33 kts 181°
2026-05-05 13:21 32.90879 -97.02994 628 ft 133 kts 180°
2026-05-05 13:22 32.89534 -97.03001 663 ft 245 kts 180°
2026-05-05 13:22 32.87883 -97.03002 1338 ft 224 kts 181°
2026-05-05 13:22 32.86379 -97.03013 1601 ft 209 kts 181°
2026-05-05 13:22 32.85022 -97.03007 1990 ft 194 kts 181°
2026-05-05 13:23 32.83625 -97.03016 2336 ft 211 kts 183°
2026-05-05 13:23 32.82205 -97.02793 3742 ft 213 kts 163°
2026-05-05 13:23 32.80812 -97.01971 3728 ft 228 kts 156°
2026-05-05 13:23 32.79387 -97.01082 3871 ft 239 kts 158°
2026-05-05 13:24 32.78042 -96.99777 4487 ft 267 kts 128°
2026-05-05 13:24 32.77409 -96.97608 4977 ft 290 kts 102°
2026-05-05 13:24 32.76996 -96.95230 5017 ft 298 kts 112°
2026-05-05 13:24 32.76440 -96.92860 5011 ft 297 kts 100°
2026-05-05 13:25 32.76453 -96.90393 5380 ft 302 kts 89°
2026-05-05 13:25 32.76621 -96.87859 6334 ft 312 kts 88°
2026-05-05 13:25 32.76766 -96.85258 7472 ft 317 kts 88°
2026-05-05 13:25 32.76945 -96.82649 8587 ft 320 kts 80°
2026-05-05 13:26 32.77517 -96.80061 9611 ft 326 kts 72°
2026-05-05 13:26 32.78222 -96.77481 10640 ft 333 kts 71°
2026-05-05 13:26 32.78976 -96.74763 11155 ft 359 kts 71°
2026-05-05 13:26 32.79782 -96.71814 11448 ft 390 kts 71°
2026-05-05 13:27 32.80617 -96.68692 12291 ft 401 kts 71°
2026-05-05 13:27 32.81457 -96.65491 13324 ft 408 kts 71°
2026-05-05 13:27 32.82293 -96.62276 14341 ft 414 kts 71°
2026-05-05 13:27 32.83146 -96.58977 15292 ft 422 kts 71°
2026-05-05 13:28 32.84014 -96.55606 16229 ft 431 kts 70°
2026-05-05 13:28 32.84897 -96.52176 17180 ft 437 kts 70°
2026-05-05 13:28 32.85793 -96.48686 18106 ft 444 kts 70°
2026-05-05 13:28 32.86704 -96.45135 18980 ft 452 kts 70°
2026-05-05 13:29 32.87474 -96.42131 19663 ft 459 kts 70°
2026-05-05 13:29 32.88415 -96.38455 20509 ft 466 kts 70°
2026-05-05 13:29 32.89367 -96.34731 21334 ft 472 kts 70°
2026-05-05 13:29 32.90381 -96.30986 22087 ft 479 kts 67°
2026-05-05 13:30 32.91554 -96.27247 22784 ft 486 kts 65°
2026-05-05 13:30 32.92814 -96.23477 23509 ft 492 kts 64°
2026-05-05 13:30 32.94096 -96.19692 24203 ft 498 kts 64°
2026-05-05 13:30 32.95396 -96.15818 24863 ft 505 kts 64°
2026-05-05 13:31 32.96669 -96.11953 25503 ft 511 kts 64°
2026-05-05 13:31 32.97960 -96.07967 26142 ft 517 kts 65°
2026-05-05 13:31 32.99256 -96.03957 26730 ft 522 kts 64°
2026-05-05 13:31 33.00568 -95.99883 27284 ft 529 kts 64°
2026-05-05 13:32 33.01887 -95.95772 27852 ft 534 kts 64°
2026-05-05 13:32 33.03220 -95.91611 28483 ft 538 kts 64°
2026-05-05 13:32 33.04559 -95.87431 29029 ft 543 kts 64°
2026-05-05 13:32 33.05919 -95.83190 29502 ft 549 kts 64°
2026-05-05 13:33 33.07292 -95.78913 29961 ft 554 kts 63°
2026-05-05 13:33 33.08681 -95.74596 30414 ft 559 kts 63°
2026-05-05 13:33 33.10076 -95.70253 30842 ft 563 kts 63°
2026-05-05 13:33 33.11478 -95.65879 31289 ft 566 kts 63°
2026-05-05 13:34 33.12877 -95.61500 31869 ft 565 kts 63°
2026-05-05 13:34 33.14271 -95.57122 32511 ft 563 kts 63°
2026-05-05 13:34 33.15663 -95.52744 33109 ft 562 kts 63°
2026-05-05 13:34 33.17046 -95.48394 33653 ft 561 kts 63°
2026-05-05 13:35 33.18432 -95.44034 34117 ft 562 kts 63°
2026-05-05 13:35 33.19799 -95.39731 34617 ft 562 kts 63°
2026-05-05 13:35 33.21176 -95.35384 35142 ft 560 kts 63°
2026-05-05 13:35 33.22555 -95.31026 35657 ft 559 kts 63°
2026-05-05 13:36 33.23922 -95.26698 36140 ft 558 kts 63°
2026-05-05 13:36 33.25293 -95.22356 36571 ft 558 kts 63°
2026-05-05 13:36 33.26663 -95.18015 36859 ft 560 kts 63°
2026-05-05 13:36 33.28048 -95.13625 36802 ft 563 kts 63°
2026-05-05 13:37 33.30827 -95.04790 36819 ft 574 kts 63°
2026-05-05 13:37 33.33643 -94.95791 36807 ft 577 kts 63°
2026-05-05 13:38 33.36436 -94.86821 36804 ft 574 kts 63°
2026-05-05 13:38 33.39216 -94.77881 36806 ft 573 kts 63°
2026-05-05 13:39 33.41983 -94.68965 36803 ft 572 kts 63°
2026-05-05 13:39 33.44748 -94.60033 36805 ft 571 kts 63°
2026-05-05 13:40 33.47504 -94.51104 36813 ft 571 kts 63°
2026-05-05 13:40 33.50247 -94.42186 36800 ft 571 kts 63°
2026-05-05 13:41 33.52520 -94.34772 36808 ft 571 kts 63°
2026-05-05 13:41 33.55700 -94.24373 36811 ft 571 kts 63°
2026-05-05 13:42 33.57947 -94.16881 36815 ft 572 kts 63°
2026-05-05 13:42 33.60614 -94.07874 36830 ft 573 kts 63°
2026-05-05 13:43 33.63286 -93.98836 36809 ft 573 kts 63°
2026-05-05 13:43 33.65956 -93.89806 36820 ft 573 kts 63°
2026-05-05 13:44 33.68618 -93.80780 36831 ft 574 kts 63°
2026-05-05 13:44 33.71256 -93.71807 36832 ft 574 kts 63°
2026-05-05 13:45 33.73906 -93.62761 36824 ft 573 kts 63°
2026-05-05 13:45 33.76550 -93.53706 36834 ft 573 kts 63°
2026-05-05 13:46 33.79186 -93.44653 36833 ft 573 kts 63°
2026-05-05 13:46 33.81789 -93.35683 36830 ft 572 kts 63°
2026-05-05 13:47 33.84406 -93.26638 36829 ft 572 kts 63°